User: anonymous
Location: Unspecified
(0.0000°N, 0.0000°E)
Time: 01:00:33
(UTC+02:00)
Language:

SJ-6B - Orbit

View from above orbital plane
View from above orbital plane
View from above satellite
View from above satellite

Ground track
Ground track

The orbit data is extracted from the following two-line orbital elements,

1 28415U 04035C   14204.44679625  .00000990  00000-0  77222-4 0  2474
2 28415 097.7952 209.3291 0057429 107.5008 253.2504 15.02283765539192
Epoch (UTC): 23 July 2014 10:43:23
Eccentricity: 0.0057429
inclination: 97.7952°
perigee height: 520 km
apogee height: 600 km
right ascension of ascending node: 209.3291°
argument of perigee: 107.5008°
revolutions per day: 15.02283765
mean anomaly at epoch: 253.2504°
orbit number at epoch: 53919

The dashed part of the orbit path shows where the satellite is in the earth's shadow,  

DLR